Flag for US Virgin Islands Weather past 2 weeks in Christiansted, US Virgin Islands

Now
83 °F

Passing clouds.


Feels Like: 91 °F
Forecast: 78 / 87 °F
Wind: 8 mph from Southeast

Location: Christiansted / Henry E. Rohlsen Airport - Saint Croix

Current Time: Sep 2, 2015 at 7:37:53 AM

Latest Report: Sep 2, 2015 at 6:53 AM


Visibility: 10 mi

Pressure: 30.01 "Hg

Humidity: 79%

Dew point: 76 °F

Location of ChristianstedLocation

Historic Weather in Christiansted — Graph

°F

Christiansted temperature yesterday

Maximum temperature yesterday: 89 °F (at 12:53 PM)
Minimum temperature yesterday: 78 °F (at 4:53 AM)
Average temperature yesterday: 83 °F

Past Weeks' High & Low Weather Summary

 TemperatureHumidityPressure
High93 °F (Aug 26, 12:53 PM)100% (Aug 27, 9:19 PM)30.07 "Hg (Aug 27, 9:19 PM)
Low76 °F (Aug 23, 1:53 AM)54% (Aug 18, 10:53 AM)29.72 "Hg (Aug 27, 7:53 PM)
Average84 °F77%29.96 "Hg
* Reported Aug 18 5:53 AM — Sep 2 5:53 AM, Christiansted, Weather by CustomWeather, © 2015

Note: Actual official high and low records may vary slightly from our data, if they occured in-between our weather recording intervals... More about our weather records

Advertising

Christiansted weather history for previous 24 hours

 ConditionsComfort  
Time TempWeatherWind HumidityBarometerVisibility
5:53 AM
Wed, Sep 2
81 °FPassing clouds.7 mph88%29.99 "Hg10 mi
4:53 AM81 °FPassing clouds.7 mph88%29.98 "Hg10 mi
3:53 AM80 °FPassing clouds.3 mph90%29.99 "Hg10 mi
3:08 AM81 °FPassing clouds.5 mph94%30.00 "Hg10 mi
2:53 AM80 °FPassing clouds.5 mph94%30.00 "Hg10 mi
2:01 AM80 °FPartly cloudy.5 mph90%30.01 "Hg10 mi
1:35 AM80 °FPartly cloudy.5 mph90%30.02 "Hg10 mi
1:21 AM81 °FPassing clouds.3 mph91%30.02 "Hg10 mi
12:53 AM81 °FPassing clouds.6 mph91%30.01 "Hg10 mi
11:53 PM
Tue, Sep 1
81 °FPassing clouds.5 mph91%30.02 "Hg10 mi
10:53 PM82 °FPassing clouds.6 mph88%30.03 "Hg10 mi
9:53 PM82 °FPassing clouds.No wind88%30.03 "Hg10 mi
8:53 PM83 °FPassing clouds.8 mph85%30.02 "Hg10 mi
7:53 PM83 °FPassing clouds.6 mph82%30.03 "Hg10 mi
6:53 PM83 °FPassing clouds.9 mph82%30.00 "Hg10 mi
4:53 PM86 °FSunny.12 mph75%29.98 "Hg10 mi
3:53 PM87 °FPassing clouds.10 mph75%29.98 "Hg10 mi
2:53 PM88 °FScattered clouds.13 mph73%29.97 "Hg10 mi
1:53 PM88 °FScattered clouds.10 mph70%29.99 "Hg10 mi
12:53 PM89 °FScattered clouds.15 mph68%30.01 "Hg10 mi
11:53 AM88 °FScattered clouds.13 mph70%30.03 "Hg10 mi
10:53 AM88 °FScattered clouds.14 mph70%30.05 "Hg10 mi
9:53 AM87 °FPassing clouds.14 mph72%30.05 "Hg10 mi
8:53 AM86 °FScattered clouds.12 mph75%30.03 "Hg10 mi
7:53 AM83 °FScattered clouds.12 mph82%30.02 "Hg10 mi
Weather by CustomWeather, © 2015

See weather overviewHow to use our weather pages